Weather History for Shreveport, LA

Change the Weather History Date:

Sunday, May 4, 2014

  Actual Average Record
Temperature  
Mean Temperature 72 °F 70 °F  
Max Temperature 88 °F 81 °F 94 °F (1947)
Min Temperature 56 °F 59 °F 39 °F (2013)
Degree Days  
Heating Degree Days 0 1  
Month to date heating degree days 9 4  
Since 1 July heating degree days 2552 2223  
Cooling Degree Days 7 6  
Month to date cooling degree days 9 22  
Year to date cooling degree days 130 157  
Growing Degree Days 22 (Base 50)    
Moisture  
Dew Point 50 °F    
Average Humidity 49    
Maximum Humidity 72    
Minimum Humidity 26    
Precipitation  
Precipitation 0.00 in 0.17 in 4.43 in (1935)
Month to date precipitation 0.00 0.66  
Year to date precipitation 11.55 17.94  
Snow  
Snow 0.00 in - - ()
Month to date snowfall 0.0  
Since 1 July snowfall 1.0  
Snow Depth 0.00 in    
Sea Level Pressure  
Sea Level Pressure 30.03 in    
Wind  
Wind Speed 8 mph (SSW)    
Max Wind Speed 17 mph    
Max Gust Speed 23 mph    
Visibility 10 miles    
Events      
T = Trace of Precipitation, MM = Missing Value Source: NWS Daily Summary

Daily Weather History Graph

Daily Weather History Graph

Search for Another Location

Airport:

Trip Planner

Search our weather history database for the weather conditions in past years. The results will help you decide how hot, cold, wet, or windy it might be!

Date:

Astronomy

May. 04, 2014 Rise Set
Actual Time 6:25 AM CDT 7:58 PM CDT
Civil Twilight 5:59 AM CDT 8:25 PM CDT
Nautical Twilight 5:28 AM CDT 8:56 PM CDT
Astronomical Twilight 4:54 AM CDT 9:29 PM CDT
Moon 10:51 AM CDT (5/4) 12:02 AM CDT (5/4)
Length of Visible Light 14h 25m
Length of Day
13h 32m
Waxing Crescent, 28% of the Moon is Illuminated
May 4
Waxing Crescent
May 6
First Quarter
May 14
Full
May 21
Last Quarter
May 28
New

Hourly Weather History & Observations

Time (CDT) Temp. Dew Point Humidity Pressure Visibility Wind Dir Wind Speed Gust Speed Precip Events Conditions
12:56 AM 60.1 °F 51.1 °F 72% 30.04 in 10.0 mi Calm Calm - N/A   Clear
1:56 AM 61.0 °F 51.1 °F 70% 30.03 in 10.0 mi Calm Calm - N/A   Clear
2:56 AM 59.0 °F 48.9 °F 69% 30.02 in 10.0 mi Calm Calm - N/A   Clear
3:56 AM 62.1 °F 52.0 °F 70% 30.03 in 10.0 mi SSW 9.2 mph - N/A   Clear
4:56 AM 61.0 °F 51.1 °F 70% 30.03 in 10.0 mi SSW 8.1 mph - N/A   Clear
5:56 AM 60.1 °F 50.0 °F 69% 30.05 in 10.0 mi SSW 8.1 mph - N/A   Clear
6:56 AM 60.1 °F 50.0 °F 69% 30.07 in 10.0 mi SSW 6.9 mph - N/A   Clear
7:56 AM 63.0 °F 50.0 °F 63% 30.08 in 10.0 mi SW 4.6 mph - N/A   Clear
8:56 AM 70.0 °F 48.0 °F 46% 30.09 in 10.0 mi WSW 8.1 mph - N/A   Clear
9:56 AM 75.0 °F 45.0 °F 34% 30.09 in 10.0 mi SW 12.7 mph - N/A   Clear
10:56 AM 79.0 °F 45.0 °F 30% 30.09 in 10.0 mi WSW 12.7 mph 19.6 mph N/A   Clear
11:56 AM 82.9 °F 48.0 °F 29% 30.07 in 10.0 mi WSW 11.5 mph 16.1 mph N/A   Clear
12:56 PM 84.0 °F 48.0 °F 28% 30.05 in 10.0 mi SSW 9.2 mph 18.4 mph N/A   Clear
1:56 PM 87.1 °F 48.9 °F 27% 30.03 in 10.0 mi WSW 12.7 mph - N/A   Clear
2:56 PM 88.0 °F 48.0 °F 25% 30.02 in 10.0 mi SW 11.5 mph - N/A   Clear
3:56 PM 88.0 °F 48.0 °F 25% 30.00 in 10.0 mi SW 13.8 mph - N/A   Clear
4:56 PM 87.1 °F 48.0 °F 26% 29.99 in 10.0 mi South 12.7 mph 20.7 mph N/A   Clear
5:56 PM 86.0 °F 48.0 °F 27% 29.98 in 10.0 mi SSW 11.5 mph 18.4 mph N/A   Clear
6:56 PM 84.0 °F 48.9 °F 29% 29.97 in 10.0 mi SW 6.9 mph - N/A   Clear
7:56 PM 75.9 °F 53.1 °F 45% 29.97 in 10.0 mi South 3.5 mph - N/A   Clear
8:56 PM 71.1 °F 54.0 °F 55% 29.98 in 10.0 mi Calm Calm - N/A   Clear
9:56 PM 69.1 °F 54.0 °F 58% 29.99 in 10.0 mi South 6.9 mph - N/A   Clear
10:56 PM 73.0 °F 52.0 °F 48% 30.00 in 10.0 mi South 11.5 mph - N/A   Clear
11:56 PM 71.1 °F 51.1 °F 49% 30.00 in 10.0 mi SSW 8.1 mph - N/A   Clear